Location: Usti nad Labem
(50.6670°N, 14.0330°E)
Time: 12:13:29
(UTC+02:00)

ISS - Visible Passes

Search period start: 16 April 2014 00:00
Search period end: 26 April 2014 00:00
Orbit: 415 x 420 km, 51.6° (Epoch: 16 April)

Date Brightness Start Highest point End Pass type
(mag) Time Alt. Az. Time Alt. Az. Time Alt. Az.
16 Apr -3.3 21:16:00 10° WNW 21:19:23 87° NNE 21:21:36 20° ESE visible
16 Apr -1.2 22:52:54 10° W 22:54:30 22° WSW 22:54:30 22° WSW visible
17 Apr -2.8 22:04:33 10° W 22:07:47 45° SSW 22:08:06 43° S visible
18 Apr -3.1 21:16:13 10° WNW 21:19:33 61° SSW 21:21:40 20° SE visible
18 Apr -0.7 22:53:40 10° W 22:54:34 14° WSW 22:54:34 14° WSW visible
19 Apr -1.7 22:04:56 10° W 22:07:40 23° SW 22:08:07 23° SSW visible
20 Apr -2.1 21:16:22 10° W 21:19:25 33° SSW 21:21:40 16° SSE visible
21 Apr -0.7 22:06:09 10° WSW 22:07:12 11° SW 22:08:07 10° SSW visible
22 Apr -1.0 21:16:44 10° W 21:18:59 17° SW 21:21:13 10° S visible
